Погода в Кофоридуа

Гана     6°05′44″N   0°15′28″E
темп.,
°C
ветер,
м/с
пор.,
м/с
влажн.,
%
обл.,
%
осадки,
мм/ч
давл.,
гПа
погр.,
м
13 мая, чт
чт1300:00+23з239412 1.4 101388
03:00+22зюз139697 0.0 101185
06:00+22з2294100 0.0 101250
09:00+28юз346697 0.0 1012630
12:00+34юз3243100 0.0 10101359
15:00+35ю324098 0.0 10061827
18:00+26ю387524 0.6 1009235
21:00+24ююз24905 0.3 101198
14 мая, пт
пт1400:00+24юз249521 0.3 1011103
03:00+23зюз119817 0.1 101021
06:00+23з129829 0.1 101154
09:00+29юз236616 0.0 1012876
12:00+34ю234430 0.0 10101924
15:00+33ююв65475 0.0 10071445
18:00+28ю58683 0.0 1009526
21:00+25ююз378637 0.0 1011435
15 мая, сб
сб1500:00+24юз2395100 0.1 1011110
03:00+23з119896 0.0 101021
06:00+23з119948 0.0 101246
09:00+30юз23608 0.0 10131016
12:00+35ю234251 0.0 10102130
15:00+32ююз455037 0.0 10081088
18:00+29ю476442 0.2 1010460
21:00+25ююз24855 0.3 1012105
16 мая, вс
вс1600:00+24зюз279355 0.3 1011285
03:00+23зюз139893 0.0 1010144
06:00+23зюз129991 0.0 101261
09:00+29юз3461100 0.0 1012869
12:00+35зюз214287 0.0 10101959
15:00+31ю5556100 0.1 1008947
18:00+26ю368269 1.1 1010221
21:00+24зюз2390100 0.1 101366
17 мая, пн
пн1700:00+23зюз129599 0.1 101235
03:00+23сз1197100 0.0 101113
06:00+23зюз129787 0.0 101244
09:00+29юз456359 0.0 1013910
12:00+34ююз2345100 0.0 10112038
15:00+32ю4350100 0.0 10091503
18:00+28ю5868100 0.0 1011524
21:00+24юз2585100 0.0 1013202